Time,TemperatureF,DewpointF,PressureIn,WindDirection,WindDirectionDegrees,WindSpeedMPH,WindSpeedGustMPH,Humidity,HourlyPrecipIn,Conditions,Clouds,dailyrainin,SoftwareType,DateUTC
2013-07-04 00:02:00,79.0,77.0,30.14,East,89,0.0,0.0,93,0.00,,,0.13,,2013-07-04 04:02:00,
2013-07-04 00:33:00,79.0,76.0,30.14,East,87,0.0,0.0,92,0.00,,,0.13,,2013-07-04 04:33:00,
2013-07-04 01:33:00,79.0,76.0,30.14,North,4,0.0,1.0,90,0.00,,,0.06,,2013-07-04 05:33:00,
2013-07-04 01:43:00,78.0,75.0,30.13,NW,311,4.0,7.0,91,0.06,,,0.12,,2013-07-04 05:43:00,
2013-07-04 02:01:00,77.0,74.0,30.12,NW,307,0.0,3.0,92,0.10,,,0.16,,2013-07-04 06:01:00,
2013-07-04 02:34:00,77.0,75.0,30.12,NW,305,0.0,4.0,94,0.10,,,0.14,,2013-07-04 06:34:00,
2013-07-04 02:43:00,77.0,75.0,30.11,West,262,0.0,2.0,94,0.04,,,0.14,,2013-07-04 06:43:00,
2013-07-04 02:52:00,77.0,75.0,30.11,West,271,0.0,3.0,94,0.04,,,0.14,,2013-07-04 06:52:00,
2013-07-04 03:02:00,77.0,75.0,30.11,NE,54,0.0,1.0,94,0.00,,,0.14,,2013-07-04 07:02:00,
2013-07-04 03:12:00,77.0,75.0,30.10,NNW,346,0.0,0.0,94,0.00,,,0.14,,2013-07-04 07:12:00,
2013-07-04 03:22:00,77.0,75.0,30.10,NNE,30,0.0,0.0,94,0.00,,,0.14,,2013-07-04 07:22:00,
2013-07-04 03:34:00,77.0,75.0,30.10,NNE,29,0.0,0.0,94,0.00,,,0.14,,2013-07-04 07:34:00,
2013-07-04 03:52:00,77.0,75.0,30.09,NNE,28,0.0,0.0,95,0.00,,,0.14,,2013-07-04 07:52:00,
2013-07-04 04:02:00,76.0,74.0,30.09,NNE,29,0.0,0.0,95,0.00,,,0.14,,2013-07-04 08:02:00,
2013-07-04 04:11:00,77.0,75.0,30.09,ESE,103,0.0,0.0,95,0.00,,,0.14,,2013-07-04 08:11:00,
2013-07-04 04:22:00,77.0,76.0,30.09,East,89,0.0,1.0,96,0.00,,,0.14,,2013-07-04 08:22:00,
2013-07-04 04:33:00,78.0,76.0,30.09,ESE,108,0.0,3.0,94,0.00,,,0.14,,2013-07-04 08:33:00,
2013-07-04 04:42:00,78.0,75.0,30.09,ESE,108,1.0,4.0,92,0.00,,,0.14,,2013-07-04 08:42:00,
2013-07-04 04:53:00,79.0,76.0,30.09,East,93,3.0,7.0,90,0.00,,,0.14,,2013-07-04 08:53:00,
2013-07-04 05:02:00,79.0,75.0,30.09,East,91,1.0,7.0,88,0.00,,,0.14,,2013-07-04 09:02:00,
2013-07-04 05:11:00,79.0,75.0,30.09,SE,141,2.0,5.0,87,0.00,,,0.14,,2013-07-04 09:11:00,
2013-07-04 05:52:00,80.0,75.0,30.08,ENE,73,2.0,7.0,85,0.00,,,0.14,,2013-07-04 09:52:00,
2013-07-04 06:01:00,80.0,75.0,30.09,NE,53,3.0,6.0,85,0.00,,,0.14,,2013-07-04 10:01:00,
2013-07-04 06:34:00,80.0,75.0,30.09,ESE,108,1.0,6.0,86,0.00,,,0.14,,2013-07-04 10:34:00,
2013-07-04 06:53:00,80.0,75.0,30.10,East,98,3.0,6.0,85,0.00,,,0.14,,2013-07-04 10:53:00,
2013-07-04 07:43:00,81.0,75.0,30.11,ESE,105,1.0,7.0,83,0.00,,,0.14,,2013-07-04 11:43:00,
2013-07-04 07:53:00,81.0,75.0,30.11,ENE,60,1.0,6.0,83,0.00,,,0.14,,2013-07-04 11:53:00,
2013-07-04 08:12:00,82.0,76.0,30.11,East,81,2.0,7.0,81,0.00,,,0.14,,2013-07-04 12:12:00,
2013-07-04 08:43:00,83.0,77.0,30.12,East,92,3.0,10.0,81,0.00,,,0.14,,2013-07-04 12:43:00,
2013-07-04 08:52:00,84.0,77.0,30.13,ESE,112,3.0,11.0,79,0.00,,,0.14,,2013-07-04 12:52:00,
2013-07-04 09:33:00,84.0,76.0,30.14,East,100,3.0,9.0,78,0.00,,,0.14,,2013-07-04 13:33:00,
2013-07-04 09:43:00,84.0,76.0,30.14,East,80,4.0,11.0,78,0.00,,,0.14,,2013-07-04 13:43:00,
2013-07-04 09:53:00,85.0,77.0,30.14,NNE,24,3.0,9.0,78,0.00,,,0.14,,2013-07-04 13:53:00,
2013-07-04 10:02:00,87.0,78.0,30.14,ENE,72,2.0,8.0,74,0.00,,,0.14,,2013-07-04 14:02:00,
2013-07-04 10:11:00,87.0,77.0,30.14,ENE,64,4.0,11.0,72,0.00,,,0.14,,2013-07-04 14:11:00,
2013-07-04 10:22:00,87.0,77.0,30.14,SSW,201,4.0,14.0,72,0.00,,,0.14,,2013-07-04 14:22:00,
2013-07-04 10:33:00,86.0,77.0,30.15,SSE,148,5.0,15.0,74,0.00,,,0.14,,2013-07-04 14:33:00,
2013-07-04 10:43:00,86.0,77.0,30.14,East,91,1.0,7.0,74,0.00,,,0.14,,2013-07-04 14:43:00,
2013-07-04 10:53:00,87.0,77.0,30.15,ENE,70,4.0,15.0,72,0.00,,,0.14,,2013-07-04 14:53:00,
2013-07-04 11:02:00,87.0,76.0,30.15,ENE,68,5.0,11.0,70,0.00,,,0.14,,2013-07-04 15:02:00,
2013-07-04 11:11:00,87.0,77.0,30.15,East,83,4.0,12.0,73,0.00,,,0.14,,2013-07-04 15:11:00,
2013-07-04 11:23:00,87.0,77.0,30.15,ENE,58,3.0,10.0,73,0.00,,,0.14,,2013-07-04 15:23:00,
2013-07-04 11:33:00,87.0,76.0,30.15,East,89,6.0,14.0,71,0.00,,,0.14,,2013-07-04 15:33:00,
2013-07-04 11:43:00,87.0,77.0,30.15,ENE,63,4.0,9.0,72,0.00,,,0.14,,2013-07-04 15:43:00,
2013-07-04 11:52:00,87.0,78.0,30.15,SSE,161,3.0,10.0,74,0.00,,,0.14,,2013-07-04 15:52:00,
2013-07-04 12:02:00,87.0,77.0,30.15,East,82,4.0,11.0,72,0.00,,,0.14,,2013-07-04 16:02:00,
2013-07-04 12:11:00,85.0,78.0,30.15,East,96,5.0,15.0,79,0.00,,,0.14,,2013-07-04 16:11:00,
2013-07-04 12:22:00,86.0,78.0,30.15,ESE,103,5.0,14.0,77,0.00,,,0.14,,2013-07-04 16:22:00,
2013-07-04 12:33:00,86.0,78.0,30.15,East,93,4.0,12.0,77,0.00,,,0.14,,2013-07-04 16:33:00,
2013-07-04 12:43:00,87.0,78.0,30.14,ENE,76,7.0,16.0,75,0.00,,,0.14,,2013-07-04 16:43:00,
2013-07-04 12:52:00,87.0,77.0,30.14,NW,313,4.0,11.0,73,0.00,,,0.14,,2013-07-04 16:52:00,
2013-07-04 13:01:00,88.0,77.0,30.14,ENE,58,5.0,12.0,71,0.00,,,0.14,,2013-07-04 17:01:00,
2013-07-04 13:12:00,89.0,77.0,30.15,ESE,108,1.0,9.0,69,0.00,,,0.14,,2013-07-04 17:12:00,
2013-07-04 13:22:00,89.0,77.0,30.15,ENE,63,3.0,11.0,68,0.00,,,0.14,,2013-07-04 17:22:00,
2013-07-04 13:34:00,88.0,75.0,30.15,NNW,338,5.0,13.0,65,0.00,,,0.14,,2013-07-04 17:34:00,
2013-07-04 13:43:00,88.0,76.0,30.14,ENE,77,3.0,12.0,67,0.00,,,0.14,,2013-07-04 17:43:00,
2013-07-04 13:53:00,89.0,75.0,30.14,SE,146,4.0,10.0,64,0.00,,,0.14,,2013-07-04 17:53:00,
2013-07-04 14:01:00,88.0,75.0,30.14,East,92,6.0,12.0,65,0.00,,,0.14,,2013-07-04 18:01:00,
2013-07-04 14:11:00,89.0,76.0,30.14,South,191,2.0,12.0,65,0.00,,,0.14,,2013-07-04 18:11:00,
2013-07-04 14:22:00,89.0,74.0,30.13,NE,56,4.0,17.0,62,0.00,,,0.14,,2013-07-04 18:22:00,
2013-07-04 14:33:00,89.0,75.0,30.13,East,90,6.0,16.0,64,0.00,,,0.14,,2013-07-04 18:33:00,
2013-07-04 14:43:00,90.0,77.0,30.13,NNE,16,2.0,9.0,66,0.00,,,0.14,,2013-07-04 18:43:00,
2013-07-04 14:52:00,89.0,76.0,30.12,ESE,109,6.0,13.0,66,0.00,,,0.14,,2013-07-04 18:52:00,
2013-07-04 15:02:00,89.0,77.0,30.11,ESE,106,7.0,11.0,67,0.00,,,0.14,,2013-07-04 19:02:00,
2013-07-04 15:12:00,88.0,78.0,30.11,ESE,105,3.0,12.0,72,0.00,,,0.14,,2013-07-04 19:12:00,
2013-07-04 15:22:00,88.0,78.0,30.11,ESE,108,2.0,11.0,72,0.00,,,0.14,,2013-07-04 19:22:00,
2013-07-04 15:33:00,89.0,77.0,30.11,ENE,66,2.0,7.0,69,0.00,,,0.14,,2013-07-04 19:33:00,
2013-07-04 15:43:00,89.0,77.0,30.11,WSW,249,3.0,8.0,68,0.00,,,0.14,,2013-07-04 19:43:00,
2013-07-04 15:53:00,88.0,78.0,30.11,East,82,3.0,13.0,73,0.00,,,0.14,,2013-07-04 19:53:00,
2013-07-04 16:02:00,83.0,77.0,30.11,ESE,114,1.0,9.0,82,0.27,,,0.41,,2013-07-04 20:02:00,
2013-07-04 16:11:00,82.0,78.0,30.11,ENE,77,1.0,4.0,88,0.27,,,0.41,,2013-07-04 20:11:00,
2013-07-04 16:22:00,82.0,78.0,30.11,ENE,75,2.0,6.0,87,0.27,,,0.41,,2013-07-04 20:22:00,
2013-07-04 16:34:00,83.0,79.0,30.10,SSW,203,1.0,6.0,87,0.27,,,0.41,,2013-07-04 20:34:00,
2013-07-04 16:42:00,85.0,78.0,30.09,ENE,67,1.0,8.0,81,0.27,,,0.41,,2013-07-04 20:42:00,
2013-07-04 16:53:00,86.0,78.0,30.09,NW,319,3.0,12.0,77,0.22,,,0.41,,2013-07-04 20:53:00,
2013-07-04 17:01:00,86.0,78.0,30.09,South,172,3.0,9.0,76,0.00,,,0.41,,2013-07-04 21:01:00,
2013-07-04 17:11:00,86.0,77.0,30.09,SW,228,3.0,8.0,75,0.00,,,0.41,,2013-07-04 21:11:00,
2013-07-04 17:22:00,86.0,77.0,30.09,SSE,162,1.0,9.0,75,0.00,,,0.41,,2013-07-04 21:22:00,
2013-07-04 17:32:00,86.0,77.0,30.09,ENE,60,3.0,9.0,74,0.00,,,0.41,,2013-07-04 21:32:00,
2013-07-04 17:43:00,86.0,78.0,30.09,ENE,70,1.0,11.0,76,0.00,,,0.41,,2013-07-04 21:43:00,
2013-07-04 17:53:00,86.0,77.0,30.09,ESE,109,4.0,10.0,74,0.00,,,0.41,,2013-07-04 21:53:00,
2013-07-04 18:02:00,86.0,77.0,30.09,ENE,76,4.0,9.0,74,0.00,,,0.41,,2013-07-04 22:02:00,
2013-07-04 18:12:00,85.0,76.0,30.09,South,190,2.0,10.0,75,0.00,,,0.41,,2013-07-04 22:12:00,
2013-07-04 18:22:00,85.0,76.0,30.10,East,86,2.0,7.0,75,0.00,,,0.41,,2013-07-04 22:22:00,
2013-07-04 18:33:00,85.0,77.0,30.10,East,79,2.0,8.0,76,0.00,,,0.41,,2013-07-04 22:33:00,
2013-07-04 18:43:00,86.0,77.0,30.09,ESE,108,1.0,10.0,75,0.00,,,0.41,,2013-07-04 22:43:00,
2013-07-04 18:52:00,86.0,76.0,30.09,ESE,108,3.0,10.0,72,0.00,,,0.41,,2013-07-04 22:52:00,
2013-07-04 19:01:00,87.0,76.0,30.09,East,84,4.0,10.0,71,0.00,,,0.41,,2013-07-04 23:01:00,
2013-07-04 19:12:00,86.0,76.0,30.09,East,82,2.0,6.0,72,0.00,,,0.41,,2013-07-04 23:12:00,
2013-07-04 19:23:00,86.0,76.0,30.10,East,80,3.0,11.0,73,0.00,,,0.41,,2013-07-04 23:23:00,
2013-07-04 19:33:00,86.0,76.0,30.10,East,94,3.0,11.0,73,0.00,,,0.41,,2013-07-04 23:33:00,
2013-07-04 19:43:00,85.0,76.0,30.11,East,87,4.0,11.0,74,0.00,,,0.41,,2013-07-04 23:43:00,
2013-07-04 19:52:00,85.0,76.0,30.11,ESE,108,2.0,5.0,75,0.00,,,0.41,,2013-07-04 23:52:00,
2013-07-04 20:01:00,84.0,75.0,30.11,ENE,71,3.0,7.0,74,0.00,,,0.41,,2013-07-05 00:01:00,
2013-07-04 20:11:00,84.0,76.0,30.11,ESE,117,4.0,9.0,78,0.00,,,0.41,,2013-07-05 00:11:00,
2013-07-04 20:22:00,84.0,77.0,30.11,East,81,0.0,5.0,79,0.00,,,0.37,,2013-07-05 00:22:00,
2013-07-04 20:32:00,83.0,76.0,30.11,East,93,1.0,7.0,79,0.00,,,0.37,,2013-07-05 00:32:00,
2013-07-04 20:43:00,83.0,76.0,30.11,East,93,1.0,7.0,79,0.00,,,0.37,,2013-07-05 00:43:00,
2013-07-04 20:52:00,83.0,76.0,30.11,East,89,3.0,9.0,80,0.00,,,0.37,,2013-07-05 00:52:00,
2013-07-04 21:01:00,83.0,76.0,30.12,ESE,122,4.0,9.0,80,0.00,,,0.37,,2013-07-05 01:01:00,
2013-07-04 21:11:00,83.0,76.0,30.12,East,98,2.0,8.0,80,0.00,,,0.37,,2013-07-05 01:11:00,
2013-07-04 21:22:00,83.0,76.0,30.13,East,94,5.0,8.0,80,0.00,,,0.37,,2013-07-05 01:22:00,
2013-07-04 21:32:00,83.0,76.0,30.13,ESE,106,1.0,8.0,80,0.00,,,0.37,,2013-07-05 01:32:00,
2013-07-04 21:42:00,83.0,76.0,30.14,ENE,75,3.0,6.0,80,0.00,,,0.37,,2013-07-05 01:42:00,
2013-07-04 21:52:00,83.0,76.0,30.15,North,349,2.0,7.0,80,0.00,,,0.37,,2013-07-05 01:52:00,
2013-07-04 22:02:00,83.0,76.0,30.15,East,94,3.0,8.0,80,0.00,,,0.37,,2013-07-05 02:02:00,
2013-07-04 22:11:00,83.0,76.0,30.16,SSE,162,3.0,10.0,79,0.00,,,0.37,,2013-07-05 02:11:00,
2013-07-04 22:22:00,82.0,71.0,30.17,NE,51,6.0,11.0,70,0.00,,,0.37,,2013-07-05 02:22:00,
2013-07-04 22:32:00,80.0,71.0,30.17,NNE,24,1.0,12.0,75,0.02,,,0.39,,2013-07-05 02:32:00,
2013-07-04 22:42:00,78.0,71.0,30.16,ESE,113,2.0,12.0,79,0.04,,,0.41,,2013-07-05 02:42:00,
2013-07-04 22:52:00,78.0,71.0,30.16,ESE,113,2.0,12.0,79,0.04,,,0.41,,2013-07-05 02:52:00,
2013-07-04 23:02:00,75.0,71.0,30.17,ENE,75,1.0,3.0,87,0.04,,,0.41,,2013-07-05 03:02:00,
2013-07-04 23:11:00,75.0,71.0,30.17,East,79,0.0,3.0,87,0.04,,,0.41,,2013-07-05 03:11:00,
2013-07-04 23:22:00,75.0,71.0,30.17,East,93,0.0,3.0,87,0.04,,,0.41,,2013-07-05 03:22:00,
2013-07-04 23:32:00,75.0,71.0,30.17,East,93,0.0,3.0,87,0.04,,,0.41,,2013-07-05 03:32:00,
2013-07-04 23:42:00,75.0,71.0,30.17,ESE,108,0.0,1.0,88,0.02,,,0.41,,2013-07-05 03:42:00,
2013-07-04 23:52:00,75.0,71.0,30.17,ESE,108,0.0,1.0,88,0.02,,,0.41,,2013-07-05 03:52:00,